Home > Weather > Neenah > Past weeks

Flag for USA Weather for the Past 2 Weeks in Neenah, Wisconsin, USA

Now
46 °F

Clear.


Feels Like: 44 °F
Forecast: 45 / 66 °F
Wind: 6 mph from Southwest

Location: Appleton / Outagamie

Current Time: May 3, 2016 at 12:57:05 AM

Latest Report: May 3, 2016 at 12:15 AM


Visibility: 10 mi

Pressure: 29.96 "Hg

Humidity: 57%

Dew Point: 32 °F

Location of NeenahLocation

Historic Weather in Neenah — Graph

°F

Neenah Temperature Yesterday

Maximum temperature yesterday: 63 °F (at 3:45 PM)
Minimum temperature yesterday: 36 °F (at 5:15 AM)
Average temperature yesterday: 47 °F

High & Low Weather Summary for the Past Weeks

 TemperatureHumidityPressure
High81 °F (Apr 18, 3:45 PM)100% (Apr 21, 4:55 AM)30.36 "Hg (Apr 21, 4:55 AM)
Low32 °F (Apr 27, 4:35 AM)14% (Apr 27, 5:45 PM)29.61 "Hg (Apr 25, 4:45 PM)
Average47 °F65%30.04 "Hg
* Reported Apr 17 11:15 PM — May 2 11:15 PM, Neenah, Weather by CustomWeather, © 2016

Note: Actual official high and low records may vary slightly from our data, if they occured in-between our weather recording intervals... More about our weather records

Advertising

Neenah Weather History for the Previous 24 Hours

Scroll right to see more
 ConditionsComfort  
Time TempWeatherWind HumidityBarometerVisibility
11:15 PM
Mon, May 2
46 °FClear.7 mph57%29.97 "Hg10 mi
10:45 PM48 °FPassing clouds.6 mph58%29.99 "Hg10 mi
9:45 PM52 °FPassing clouds.7 mph47%29.99 "Hg10 mi
7:45 PM55 °FScattered clouds.9 mph41%29.99 "Hg10 mi
5:45 PM63 °FPartly sunny.7 mph27%29.99 "Hg10 mi
4:45 PM63 °FScattered clouds.No wind25%30.00 "Hg10 mi
3:45 PM63 °FScattered clouds.8 mph25%30.02 "Hg10 mi
2:45 PM61 °FScattered clouds.5 mph27%30.04 "Hg10 mi
1:45 PM61 °FPartly sunny.6 mph29%30.04 "Hg10 mi
12:45 PM61 °FScattered clouds.8 mph29%30.06 "Hg10 mi
11:45 AM57 °FScattered clouds.8 mph36%30.08 "Hg10 mi
10:45 AM55 °FSunny.10 mph41%30.08 "Hg10 mi
9:45 AM52 °FSunny.7 mph50%30.09 "Hg10 mi
8:45 AM48 °FSunny.9 mph58%30.09 "Hg10 mi
7:45 AM45 °FSunny.8 mph66%30.10 "Hg10 mi
6:45 AM39 °FSunny.6 mph75%30.10 "Hg10 mi
5:45 AM37 °FClear.6 mph75%30.09 "Hg10 mi
5:15 AM36 °FClear.5 mph87%30.09 "Hg10 mi
4:55 AM37 °FClear.5 mph81%30.08 "Hg10 mi
4:35 AM37 °FClear.3 mph81%30.09 "Hg10 mi
4:15 AM37 °FClear.6 mph81%30.09 "Hg10 mi
3:50 AM37 °FClear.6 mph81%30.09 "Hg10 mi
3:35 AM37 °FClear.5 mph81%30.09 "Hg10 mi
3:15 AM37 °FClear.7 mph81%30.08 "Hg10 mi
2:55 AM37 °FClear.6 mph81%30.08 "Hg10 mi
2:15 AM39 °FClear.6 mph75%30.08 "Hg10 mi
1:35 AM39 °FClear.6 mph81%30.08 "Hg10 mi
1:15 AM39 °FClear.8 mph81%30.07 "Hg10 mi
12:15 AM41 °FClear.9 mph81%30.06 "Hg10 mi
Weather by CustomWeather, © 2016

See weather overviewHow to use our weather pages